Regional Weather Roundup
Issued by NWS Grand Forks, ND

Home | Current Version | Previous Version | Text Only | Print | Product List | Glossary Off
Versions: 1 2 3 4 5 6 7 8 9 10 11 12 13 14 15 16 17 18 19 20 21 22 23 24 25 26 27 28 29 30 31 32 33 34 35 36 37 38 39 40 41 42 43 44 45 46 47 48 49 50

000
ASUS43 KFGF 180731
RWRFGF
PRAIRIE TO PINES  WEATHER ROUNDUP
NATIONAL WEATHER SERVICE EASTERN NORTH DAKOTA/GRAND FORKS ND
200 AM CDT SAT APR 18 2015

 **SATELLITE DATA USED TO AUGMENT SKY COVER AT AUTOMATED STATIONS**
 *****  WEATHER ACROSS EASTERN NORTH DAKOTA  *****

CITY           SKY/WX    TMP DP  RH WIND       PRES   REMARKS
GRAND FORKS    CLEAR     33  26  75 N5        30.15S
GRAND FRKS AFB CLEAR     32  26  77 N3        30.15S
GRAND FRKS NWS   N/A     39 N/A N/A NE2         N/A
DEVILS LAKE    CLEAR     37  28  70 E6        30.14R
FARGO          CLEAR     47  23  38 NE8       30.12R
WAHPETON ARPT  SUNNY     46  19  34 NE7       30.09S
$$

 ***** WEATHER ACROSS CENTRAL AND WESTERN NORTH DAKOTA  *****

CITY           SKY/WX    TMP DP  RH WIND       PRES   REMARKS
BISMARCK       CLEAR     43  29  57 E7        30.11S
MINOT          CLEAR     40  27  59 SE8       30.11S
JAMESTOWN      PTCLDY    40  25  55 NE8       30.12S
MINOT AFB      CLEAR     36  27  70 SE6       30.11S
GARRISON         N/A     43  27  53 SE8       30.11R
WILLISTON      CLEAR     50  26  39 VRB3      30.06F
DICKINSON      CLEAR     42  25  50 SE10      30.06S
HETTINGER      PTCLDY    33  25  72 W5        30.07F
$$

 *****  OTHER AIRPORT OBSERVATIONS IN OUR AREA  *****

CITY           SKY/WX    TMP DP  RH WIND       PRES   REMARKS
WALHALLA       FAIR      32  32 100 SW5       30.19S
GRAFTON AIRPOR FAIR      36  28  75 N7        30.18S
VALLEY CITY AR FAIR      45  27  49 NE9       30.13S
CANDO          FAIR      37  27  65 E8        30.15F
CAVALIER APRT  FAIR      34  27  75 N5        30.18S
GWINNER        SUNNY     45  21  39 N10       30.11S
ROLLA          FAIR      36  27  69 CALM      30.17S
 ***** THE ABOVE OBSERVATIONS ARE NON NWS ARE NOT QUALITY
       CONTROLLED AND MAY MIS-REPORT RAIN FOR SNOW...
$$

  *****  WEATHER ACROSS NORTHERN MINNESOTA  *****

CITY           SKY/WX    TMP DP  RH WIND       PRES   REMARKS
FLAG ISLAND    CLEAR     37  30  75 CALM      30.20S
WARROAD        CLEAR     36  30  80 NE7       30.21S
ROSEAU         CLEAR     32  27  80 NE7       30.20S
HALLOCK        CLEAR     39  28  65 E10       30.17F
THF RVR FALLS  CLEAR     41  28  60 NE13      30.15F
BAUDETTE       CLEAR     36  29  75 E3        30.20S
WASKISH        CLEAR     37  30  75 NE9       30.17S
CROOKSTON      CLEAR     41  28  60 E7        30.15S
STEPHEN NDAWN    N/A     34  25  69 E6          N/A
GREENBUSH NDAW   N/A     39  30  70 E9          N/A
$$
  *****  WEATHER ACROSS CENTRAL AND WEST MINNESOTA  *****

CITY           SKY/WX    TMP DP  RH WIND       PRES   REMARKS
FOSSTON        FAIR      39  25  56 NE7       30.14S
BEMIDJI        CLEAR     38  28  65 NE6       30.14S
PARK RAPIDS    CLEAR     49  24  37 NE8       30.11R
ELBOW LAKE     FAIR      53  30  41 E9        30.08R
WADENA         CLEAR     46  23  39 NE5       30.11R
DETROIT LAKES  CLEAR     48  28  46 E7        30.12S
MOORHEAD       CLEAR     41  21  45 N8        30.12S
FERGUS FALLS   CLEAR     52  21  30 E10       30.10S
MORRIS MN      CLEAR     43  23  45 E9        30.07S
STAPLES        CLEAR     48  21  34 CALM      30.12R
$$
  *****  WEATHER ELSEWHERE ACROSS MINNESOTA  *****

CITY           SKY/WX    TMP DP  RH WIND       PRES   REMARKS
DULUTH         CLEAR     48  29  47 NE12      30.12R
INTRNTL FALLS  CLEAR     30  26  85 CALM      30.20R
ELY            CLEAR     37  30  75 N3        30.18S
CLOQUET        CLEAR     48  27  43 NE6       30.13R
WHEATON        PTCLDY    45  23  42 N6        30.10R
BRAINERD       CLEAR     50  23  34 NE9       30.11R
HIBBING        CLEAR     44  29  55 NE7       30.14R
ALEXANDRIA     PTCLDY    52  26  36 NE10      30.09R
SAINT CLOUD    CLEAR     49  28  44 N7        30.06R
MINNEAPOLIS    PTCLDY    53  33  46 CALM      30.05R
$$

  *****  WEATHER ACROSS SOUTH DAKOTA  *****

CITY           SKY/WX    TMP DP  RH WIND       PRES   REMARKS
SIOUX FALLS    CLOUDY    49  30  48 NE6       30.02F
BROOKINGS      MOCLDY    43  30  61 CALM      30.06F
WATERTOWN      CLEAR     39  26  59 N3        30.07S
HURON          CLOUDY    51  29  42 E5        30.05S
SISSETON         N/A     47  27  45 NW10      30.08R
ABERDEEN       MOCLDY    49  28  44 NE7       30.08R
MITCHELL       MOCLDY    56  28  34 NE5       30.04F
PIERRE         CLOUDY    53  48  83 NW8       30.05F
MOBRIDGE       MOCLDY    42  27  55 CALM      30.04S
RAPID CITY     CLOUDY    48  44  86 CALM      30.08F
$$

  *****  SOME WEATHER IN NEARBY STATES *****

CITY           SKY/WX    TMP DP  RH WIND       PRES   REMARKS
GLASGOW MT     CLEAR     44  27  51 E14       29.96F
GREAT FALLS MT CLEAR     39  27  62 SW7       29.99R
CHEYENNE WY    FOG       33  32  96 NW6       30.03F VSB 3/4
SCOTTSBLUFF NE LGT RAIN  42  42 100 W12       30.04F
OMAHA NE       CLOUDY    67  54  63 SE8       29.97S
DES MOINES IA  LGT RAIN  66  54  65 SW7       30.00S
DAVENPORT IA   PTCLDY    55  45  68 CALM      30.02R
CHICAGO IL     MOCLDY    64  46  52 SW5       30.00S
EAU CLAIRE WI  CLEAR     45  31  58 CALM      30.03R
LA CROSSE WI   PTCLDY    51  50  96 CALM      30.03R FOG
$$

  *****  SOME NATIONAL WEATHER *****

CITY           SKY/WX    TMP DP  RH WIND       PRES   REMARKS
LA GUARDIA NY  PTCLDY    58  44  60 NW7       29.95F
RALEIGH NC     CLOUDY    64  61  90 CALM      29.99S
ATLANTA GA     LGT RAIN  63  61  93 E7        29.99F FOG
NEW ORLEANS LA LGT RAIN  74  70  87 CALM      29.91F
OKLAHOMA CITY  CLOUDY    64  58  80 NW6       29.93F
ALBUQUERQUE NM MOCLDY    43  29  57 N7        30.05S
SALT LAKE CITY PTCLDY    49  37  63 SW8       30.03F
LOS ANGELES CA CLEAR     61  49  64 SW9       30.02R
BOISE ID       CLEAR     54  33  45 W7        30.04R
SEATTLE WA     PTCLDY    54  44  69 N8        30.31R
$$

*** WEATHER ACROSS MANITOBA...SASKATCHEWAN AND ONTARIO ***
                ***ONTARIO***

CITY           SKY/WX    TMP DP  RH WIND       PRES   REMARKS
GERALDTON      CLOUDY    37  36  93 N7        30.12R
THUNDER BAY    PTCLDY    41  32  70 N5        30.17R
SIOUX LOOKOUT  CLEAR     25  23  93 S3        30.20R
TORONTO        CLEAR     52  41  66 NW6       29.96F
BIG TROUT LK   CLOUDY    32  32 100 N3        30.19R
PICKLE LAKE    NOT AVBL
DRYDEN         CLEAR     30  28  93 CALM      30.19S
KENORA         CLEAR     36  28  75 SE7       30.20R
$$
                *** MANITOBA***

CITY           SKY/WX    TMP DP  RH WIND       PRES   REMARKS
BRANDON        CLEAR     34  30  86 E8        30.17F
DAUPHIN        CLEAR     37  30  75 S3        30.15F
ISLAND LAKE    PTCLDY    30  28  93 E2        30.20R
PILOT MOUND      N/A     34  28  80 E8          N/A
THE PAS        CLOUDY    41  32  70 SE9       30.08S
THOMPSON       PTCLDY    34  21  60 VRB2      30.14S
WINNIPEG       CLEAR     34  27  75 NE7       30.22S
LYNN LAKE      MOCLDY    37  25  60 SE5       30.04F
CHURCHILL      CLEAR     16  10  79 N10       30.22R WCI   3
GILLAM         CLEAR     27  23  86 E3        30.20R
$$
                ***SASKATCHEWAN***

CITY           SKY/WX    TMP DP  RH WIND       PRES   REMARKS
ESTEVAN        CLEAR     37  28  70 E10       30.07
KINDERSLEY     LGT RAIN  46  43  87 N23G32    29.86R
LLOYDMINSTER   CLEAR     36  36 100 W10       29.92R
PRINCE ALBERT  CLOUDY    48  28  46 E10       29.92F
REGINA         PTCLDY    46  30  53 SE21G26   30.00F
YORKTON        CLEAR     43  34  70 SE15G22   30.08S
N. BATTLEFORD  CLOUDY    46  43  87 N10       29.89F
LA RONGE       LGT RAIN  45  34  65 SE13      30.00S
SASKATOON      CLOUDY    54  25  32 S20G26    29.83F
SWIFT CURRENT  MOCLDY    52  27  37 S20G26    29.85F
$$
NOTE: THESE ARE AUTOMATED STATIONS WITH LIMITED QUALITY CONTROL
      "FAIR" INDICATES FEW OR NO CLOUDS BELOW 12,000 FEET WITH NO
      SIGNIFICANT WEATHER AND/OR OBSTRUCTIONS TO VISIBILITY.
      SKY/WX - SKY CONDITION AND SIGNIFICANT WEATHER.
      TMP - AIR TEMPERATURE.    DP   - DEWPOINT TEMPERATURE.
      RH  - RELATIVE HUMIDITY.  PRES - PRESSURE.
      HX  - HEAT INDEX.         WCI  - WIND CHILL INDEX.
$



USA.gov is the U.S. government's official web portal to all federal, state and local government web resources and services.